Location: Easthampton
(42.2676°N, 72.6690°W)
Time: 04:08:01
(UTC+00:00)

RS-44 - Pass Details

Date: 25 April 2024
Orbit: 1174 x 1511 km, 82.5° (Epoch: 27 May)

Event Time Altitude Azimuth Distance (km) Brightness Sun altitude
Rises 00:41:03 0° 197° (SSW) 4,633 ? -10.6°
Reaches altitude 10° 00:44:02 10° 201° (SSW) 3,642 ? -11.1°
Maximum altitude 00:52:45 64° 281° (WNW) 1,593 ? -12.5°
Drops below altitude 10° 01:01:03 10° 3° (N) 3,470 ? -13.8°
Sets 01:03:51 0° 6° (N) 4,403 ? -14.2°
